Regional Weather Roundup
Issued by NWS

Home | Current Version | Previous Version | Graphics & Text | Print | Product List | Glossary On
Versions: 1 2 3 4 5 6 7 8 9 10 11 12 13 14 15 16 17 18 19 20 21 22 23 24 25 26 27 28 29 30 31 32 33 34 35 36 37 38 39 40 41 42 43 44 45 46 47 48 49 50
000
ASUS43 KDTX 031210
RWRMI
MICHIGAN HOURLY REGIONAL WEATHER ROUNDUP
NATIONAL WEATHER SERVICE DETROIT/PONTIAC MI
800 AM EDT MON AUG 03 2015

NOTE: "FAIR" INDICATES FEW OR NO CLOUDS BELOW 12,000 FEET WITH NO
SIGNIFICANT WEATHER AND/OR OBSTRUCTION TO VISIBILITY.

MIZ047>049-052>055-059>063-066>070-074>076-081>083-031300-
SOUTHEAST LOWER MICHIGAN

CITY           SKY/WX    TMP DP  RH WIND       PRES   REMARKS
ADRIAN         PTSUNNY   63  62  97 W5        29.81R
6HR MIN TEMP:  63; 6HR MAX TEMP:  64; 6HR PCP:  0.05;

ALMA           MOSUNNY   62  62 100 SW3       29.77R
ANN ARBOR      CLOUDY    64  62  93 SW12      29.79R
BAD AXE        MOSUNNY   63  62  97 W5        29.74S
DETROIT CITY   PTSUNNY   66  61  84 W13       29.77R
6HR MIN TEMP:  63; 6HR MAX TEMP:  66; 6HR PCP:  0.16;

DETROIT        PTSUNNY   66  62  87 SW14      29.79R
6HR MIN TEMP:  63; 6HR MAX TEMP:  66; 6HR PCP:  0.15;

FLINT          MOSUNNY   68  62  81 W6        29.77R
6HR MIN TEMP:  65; 6HR MAX TEMP:  67;

GROSSE ILE     PTSUNNY   66  63  88 SW7       29.77S
HILLSDALE      CLOUDY    63  63 100 SW6       29.81R
6HR MIN TEMP:  63; 6HR MAX TEMP:  63;

HOWELL         PTSUNNY   64  63  96 SW5       29.78R

CITY           SKY/WX    TMP DP  RH WIND       PRES   REMARKS
JACKSON        CLOUDY    64  62  93 SW8       29.80R
6HR MIN TEMP:  63; 6HR MAX TEMP:  64;

LAMBERTVILLE   PTSUNNY   65  62  89 W5        29.80S
6HR MIN TEMP:  64; 6HR MAX TEMP:  65;

LANSING        CLOUDY    64  61  90 SW7       29.78R
6HR MIN TEMP:  63; 6HR MAX TEMP:  64;

LAPEER         NOT AVBL
MASON          PTSUNNY   62  61  97 CALM      29.79R
MONROE         CLOUDY    65  62  92 W8        29.78S
6HR MIN TEMP:  63; 6HR MAX TEMP:  65; 6HR PCP:  0.28;

MT. CLEMENS    PTSUNNY   66  62  87 W10       29.74S
6HR MIN TEMP:  64; 6HR MAX TEMP:  66; 6HR PCP:  0.30;

PONTIAC        CLOUDY    64  62  93 SW7       29.77R
6HR MIN TEMP:  62; 6HR MAX TEMP:  64; 6HR PCP:  0.01;

PORT HURON     CLOUDY    64  63  94 W3        29.75S
TRI CITIES     SUNNY     63  60  90 SW5       29.76R
6HR MIN TEMP:  60; 6HR MAX TEMP:  64;

YPSILANTI      PTSUNNY   67  62  84 SW12      29.79R
6HR MIN TEMP:  66; 6HR MAX TEMP:  68; 6HR PCP:  0.12;

$$
MIZ043>046-050>051-056>058-064>065-071>073-077>080-031300-
SOUTHWEST LOWER MICHIGAN

CITY           SKY/WX    TMP DP  RH WIND       PRES   REMARKS
BATTLE CREEK   CLOUDY    65  62  90 W6        29.80R
6HR MIN TEMP:  62; 6HR MAX TEMP:  66;

BENTON HARBOR  PTSUNNY   66  64  93 CALM      29.79R
6HR MIN TEMP:  61; 6HR MAX TEMP:  68;

BIG RAPIDS     FOG       58  58  98 CALM      29.77R VSB 1/4
6HR MIN TEMP:  55; 6HR MAX TEMP:  62;

COLDWATER      PTSUNNY   63  62  96 SW5       29.81R
6HR MIN TEMP:  62; 6HR MAX TEMP:  63;

HOLLAND        MOSUNNY   65  63  93 SW3       29.79R
6HR MIN TEMP:  58; 6HR MAX TEMP:  68;

GRAND RAPIDS   FOG       63  63 100 S5        29.78R VSB 1/4
6HR MIN TEMP:  60; 6HR MAX TEMP:  66;

KALAMAZOO      CLOUDY    65  62  90 W6        29.80R
6HR MIN TEMP:  64; 6HR MAX TEMP:  66;

MARSHALL       CLOUDY    64  63  96 CALM      29.79R
MUSKEGON       MOSUNNY   63  61  93 CALM      29.78R
6HR MIN TEMP:  61; 6HR MAX TEMP:  67; 6HR PCP: TRACE;

$$
MIZ016>042-031300-
NORTHERN LOWER MICHIGAN

CITY           SKY/WX    TMP DP  RH WIND       PRES   REMARKS
ALPENA         FOG       62  58  86 W7        29.70S VSB 1/4
6HR MIN TEMP:  59; 6HR MAX TEMP:  63;

BEAVER ISLAND  FOG       59  58  98 CALM      29.71R VSB<1/4
6HR MIN TEMP:  51; 6HR MAX TEMP:  59;

BELLAIRE       PTSUNNY   64  63  96 MISG      29.72R
6HR MIN TEMP:  55; 6HR MAX TEMP:  64;

CADILLAC       CLOUDY    61  61 100 SW5       29.76S FOG
CHARLEVOIX     SUNNY     64  60  88 W5        29.74R
6HR MIN TEMP:  59; 6HR MAX TEMP:  64;

FRANKFORT      SUNNY     55  55 100 CALM      29.74R
GAYLORD        CLOUDY    62  62 100 W7        29.73R
6HR MIN TEMP:  57; 6HR MAX TEMP:  62;

GRAYLING       FOG       59  58  99 SW5       29.75R VSB 1/4
6HR MIN TEMP:  58; 6HR MAX TEMP:  60;

HARBOR SPRINGS MOSUNNY   64  60  87 CALM      29.71R
HOUGHTON LAKE  CLOUDY    59  59 100 SW5       29.76R
6HR MIN TEMP:  58; 6HR MAX TEMP:  61;

MANISTEE       MOSUNNY   57  54  88 CALM      29.76R
OSCODA         SUNNY     62  60  94 W8        29.71R
PELLSTON       SUNNY     59  58  96 CALM      29.71R
6HR MIN TEMP:  51; 6HR MAX TEMP:  59;

TRAVERSE CITY  PTSUNNY   63  61  93 SW6       29.72R
6HR MIN TEMP:  57; 6HR MAX TEMP:  63;

$$
MIZ007>008-015-031300-
EASTERN UPPER MICHIGAN

CITY           SKY/WX    TMP DP  RH WIND       PRES   REMARKS
KINROSS        CLOUDY    54  54 100 W8        29.69R
6HR MIN TEMP:  52; 6HR MAX TEMP:  57;

MACKINAC ISLAN   N/A     60  57  91 NW6       29.69R
NEWBERRY       CLOUDY    55  54  96 W8        29.70R
6HR MIN TEMP:  49; 6HR MAX TEMP:  55;

S. S. MARIE    CLOUDY    59  55  87 W6        29.68R
6HR MIN TEMP:  58; 6HR MAX TEMP:  60;

$$
MIZ004>006-011>014-085-031300-
CENTRAL UPPER MICHIGAN

CITY           SKY/WX    TMP DP  RH WIND       PRES   REMARKS
MANISTIQUE     PTSUNNY   57  52  82 NW8       29.71R
ESCANABA       CLOUDY    57  54  88 W6        29.72R
6HR MIN TEMP:  55; 6HR MAX TEMP:  61;

MENOMINEE      CLOUDY    57  52  82 W3        29.75R
6HR MIN TEMP:  55; 6HR MAX TEMP:  63; 6HR PCP:  0.01;

SAWYER-GWINN   MOSUNNY   55  50  82 W6        29.73R
$$
MIZ001>003-009>011-084-031300-
WESTERN UPPER MICHIGAN

CITY           SKY/WX    TMP DP  RH WIND       PRES   REMARKS
IRON MOUNTAIN  MOSUNNY   60  51  72 W6        29.74R
6HR MIN TEMP:  56; 6HR MAX TEMP:  60;

HOUGHTON       CLOUDY    59  50  72 NW9       29.70S
6HR MIN TEMP:  58; 6HR MAX TEMP:  61;

COPPER HARBOR    N/A     61  52  72 N14G20    29.68R
6HR MIN TEMP:  60; 6HR MAX TEMP:  63;

IRONWOOD       CLOUDY    57  50  77 SW9       29.75R
6HR MIN TEMP:  55; 6HR MAX TEMP:  63;

$$

ABBREVIATIONS USED IN REMARKS
   TC - TEMPERATURE IN CELSIUS
  WCI - WIND CHILL INDEX
   HX - HEAT INDEX
  VSB - VISIBILITY



USA.gov is the U.S. government's official web portal to all federal, state and local government web resources and services.